When you browse on this site, cookies collect data to enhance your experience and personalize the content and advertising you see.
Visit our Privacy Policy to learn more. By continuing to use the site, you agree to this use of cookies and data.
  • In Hungary
  • List of Countries
  • For 7 days
  • Water Temperature
  • Satellite Maps
  • Weather Map
  • News
  • Weather Widgets
  • user-avatar
    Login

    Hourly Weather Medianeira

    Today, 19 November, Monday

    Time Temperature Precipitation Wind Pressure Humidity
    00:00 +19°C° 0 mm 2 mps 725 mmHg 92%
    01:00 +18°C° 0 mm 2 mps 725 mmHg 93%
    02:00 +18°C° 0 mm 2 mps 725 mmHg 93%
    03:00 +18°C° 0 mm 2 mps 725 mmHg 93%
    04:00 +18°C° 0 mm 2 mps 725 mmHg 93%
    05:00 +17°C° 0 mm 2 mps 725 mmHg 93%
    06:00 +19°C° 0 mm 2 mps 725 mmHg 84%
    07:00 +21°C° 0 mm 2 mps 725 mmHg 75%
    08:00 +24°C° 0 mm 2 mps 726 mmHg 66%
    09:00 +27°C° 0 mm 2 mps 726 mmHg 58%
    10:00 +29°C° 0 mm 2 mps 726 mmHg 50%
    11:00 +32°C° 0 mm 1 mps 726 mmHg 42%
    12:00 +32°C° 0 mm 1 mps 725 mmHg 39%
    13:00 +33°C° 0 mm 1 mps 725 mmHg 36%
    14:00 +33°C° 0 mm 1 mps 724 mmHg 33%
    15:00 +32°C° 0 mm 1 mps 724 mmHg 37%
    16:00 +31°C° 0 mm 1 mps 723 mmHg 42%
    17:00 +30°C° 0 mm 1 mps 723 mmHg 47%
    18:00 +27°C° 0 mm 1 mps 723 mmHg 53%
    19:00 +25°C° 0 mm 1 mps 724 mmHg 59%
    20:00 +23°C° 0 mm 2 mps 724 mmHg 65%
    21:00 +21°C° 0 mm 2 mps 724 mmHg 68%
    22:00 +20°C° 0 mm 2 mps 725 mmHg 71%
    23:00 +19°C° 0 mm 2 mps 725 mmHg 74%

    Tomorrow, 20 November, Tuesday

    Time Temperature Precipitation Wind Pressure Humidity
    00:00 +19°C° 0 mm 2 mps 725 mmHg 77%
    01:00 +19°C° 0 mm 2 mps 725 mmHg 80%
    02:00 +19°C° 0 mm 2 mps 725 mmHg 82%
    03:00 +19°C° 0 mm 2 mps 725 mmHg 84%
    04:00 +19°C° 0 mm 2 mps 725 mmHg 85%
    05:00 +19°C° 0 mm 1 mps 725 mmHg 87%
    06:00 +20°C° 0 mm 2 mps 726 mmHg 77%
    07:00 +24°C° 0 mm 2 mps 727 mmHg 67%
    08:00 +26°C° 0 mm 2 mps 727 mmHg 57%
    09:00 +28°C° 0 mm 1 mps 727 mmHg 51%
    10:00 +31°C° 0 mm 1 mps 727 mmHg 45%
    11:00 +33°C° 0 mm 1 mps 727 mmHg 39%
    12:00 +34°C° 0 mm 1 mps 726 mmHg 37%
    13:00 +34°C° 0 mm 1 mps 726 mmHg 35%
    14:00 +35°C° 0 mm 1 mps 725 mmHg 33%
    15:00 +34°C° 0 mm 1 mps 724 mmHg 37%
    16:00 +32°C° 0 mm 1 mps 724 mmHg 41%
    17:00 +31°C° 0 mm 1 mps 724 mmHg 46%
    18:00 +29°C° 0 mm 1 mps 724 mmHg 51%
    19:00 +26°C° 0 mm 1 mps 724 mmHg 55%
    20:00 +24°C° 0 mm 1 mps 724 mmHg 60%
    21:00 +24°C° 0 mm 1 mps 724 mmHg 63%
    22:00 +23°C° 0 mm 1 mps 725 mmHg 65%
    23:00 +22°C° 0 mm 1 mps 725 mmHg 67%

    Day after tomorrow, 21 November, Wednesday

    Time Temperature Precipitation Wind Pressure Humidity
    00:00 +21°C° 0 mm 2 mps 725 mmHg 68%
    01:00 +21°C° 0 mm 2 mps 725 mmHg 68%
    02:00 +21°C° 0 mm 2 mps 725 mmHg 69%
    03:00 +20°C° 0 mm 2 mps 725 mmHg 71%
    04:00 +20°C° 0 mm 2 mps 725 mmHg 73%
    05:00 +19°C° 0 mm 2 mps 726 mmHg 75%
    06:00 +21°C° 0 mm 2 mps 726 mmHg 66%
    07:00 +24°C° 0 mm 2 mps 727 mmHg 58%
    08:00 +26°C° 0 mm 2 mps 727 mmHg 50%
    09:00 +28°C° 0 mm 2 mps 727 mmHg 44%
    10:00 +30°C° 0 mm 2 mps 727 mmHg 39%
    11:00 +32°C° 0 mm 2 mps 727 mmHg 34%
    12:00 +34°C° 0 mm 2 mps 726 mmHg 33%
    13:00 +35°C° 0 mm 2 mps 725 mmHg 32%
    14:00 +35°C° 0 mm 2 mps 724 mmHg 30%
    15:00 +33°C° 0 mm 1 mps 724 mmHg 35%
    16:00 +33°C° 0 mm 1 mps 723 mmHg 39%
    17:00 +32°C° 0 mm 1 mps 723 mmHg 43%
    18:00 +29°C° 0 mm 1 mps 723 mmHg 49%
    19:00 +27°C° 0 mm 1 mps 723 mmHg 54%
    20:00 +25°C° 0 mm 1 mps 723 mmHg 60%
    21:00 +25°C° 0 mm 2 mps 724 mmHg 65%
    22:00 +24°C° 0 mm 2 mps 724 mmHg 69%
    23:00 +24°C° 0 mm 2 mps 724 mmHg 74%

    22 November, Thursday

    Time Temperature Precipitation Wind Pressure Humidity
    00:00 +24°C° 0 mm 2 mps 724 mmHg 76%
    01:00 +24°C° 0 mm 3 mps 723 mmHg 78%
    02:00 +22°C° 0 mm 3 mps 723 mmHg 80%
    03:00 +22°C° 0 mm 3 mps 723 mmHg 82%
    04:00 +21°C° 0 mm 2 mps 724 mmHg 84%
    05:00 +21°C° 0 mm 2 mps 724 mmHg 85%
    06:00 +24°C° 0 mm 3 mps 724 mmHg 78%
    07:00 +25°C° 0 mm 3 mps 724 mmHg 71%
    08:00 +27°C° 0 mm 3 mps 725 mmHg 64%
    09:00 +28°C° 0 mm 3 mps 725 mmHg 61%
    10:00 +30°C° 0 mm 3 mps 725 mmHg 57%
    11:00 +31°C° 0 mm 3 mps 724 mmHg 54%
    12:00 +31°C° 0 mm 3 mps 724 mmHg 52%
    13:00 +33°C° 0 mm 3 mps 723 mmHg 51%
    14:00 +33°C° 0 mm 3 mps 722 mmHg 49%
    15:00 +32°C° 0 mm 2 mps 722 mmHg 52%
    16:00 +32°C° 0 mm 2 mps 722 mmHg 54%
    17:00 +31°C° 0 mm 1 mps 722 mmHg 57%
    18:00 +29°C° 0 mm 1 mps 722 mmHg 63%
    19:00 +28°C° 0 mm 1 mps 722 mmHg 69%
    20:00 +26°C° 0 mm 1 mps 722 mmHg 74%
    21:00 +25°C° 0 mm 1 mps 722 mmHg 77%
    22:00 +25°C° 0 mm 1 mps 722 mmHg 80%
    23:00 +25°C° 0 mm 2 mps 722 mmHg 82%

    23 November, Friday

    Time Temperature Precipitation Wind Pressure Humidity
    00:00 +24°C° 0 mm 2 mps 722 mmHg 84%
    01:00 +24°C° 0 mm 2 mps 721 mmHg 86%
    02:00 +24°C° 0 mm 2 mps 721 mmHg 88%
    03:00 +23°C° 0 mm 2 mps 722 mmHg 88%
    04:00 +23°C° 0 mm 2 mps 722 mmHg 89%
    05:00 +23°C° 0 mm 2 mps 722 mmHg 89%
    06:00 +25°C° 0.1 mm 2 mps 722 mmHg 82%
    07:00 +27°C° 0.1 mm 3 mps 723 mmHg 75%
    08:00 +28°C° 0.1 mm 4 mps 723 mmHg 68%
    09:00 +30°C° 0.2 mm 3 mps 723 mmHg 63%
    10:00 +31°C° 0.2 mm 3 mps 722 mmHg 58%
    11:00 +33°C° 0.2 mm 3 mps 722 mmHg 53%
    12:00 +32°C° 1.4 mm 2 mps 722 mmHg 59%
    13:00 +31°C° 1.4 mm 2 mps 721 mmHg 65%
    14:00 +30°C° 1.4 mm 1 mps 721 mmHg 72%
    15:00 +29°C° 0.9 mm 1 mps 721 mmHg 76%
    16:00 +28°C° 0.9 mm 1 mps 721 mmHg 80%
    17:00 +27°C° 0.9 mm 1 mps 721 mmHg 84%
    18:00 +26°C° 0.9 mm 1 mps 721 mmHg 86%
    19:00 +25°C° 0.9 mm 1 mps 721 mmHg 89%
    20:00 +24°C° 0.9 mm 1 mps 722 mmHg 92%
    21:00 +24°C° 0.4 mm 1 mps 722 mmHg 93%
    22:00 +22°C° 0.4 mm 0 mps 721 mmHg 93%
    23:00 +21°C° 0.4 mm 0 mps 721 mmHg 94%

    24 November, Saturday

    Time Temperature Precipitation Wind Pressure Humidity
    00:00 +23°C° 1.1 mm 1 mps 721 mmHg 94%
    01:00 +23°C° 1.1 mm 1 mps 721 mmHg 94%
    02:00 +23°C° 1.1 mm 1 mps 720 mmHg 94%
    03:00 +23°C° 2.4 mm 1 mps 720 mmHg 95%
    04:00 +23°C° 2.4 mm 1 mps 721 mmHg 96%
    05:00 +22°C° 2.4 mm 1 mps 721 mmHg 96%
    06:00 +23°C° 2.6 mm 1 mps 721 mmHg 96%
    07:00 +23°C° 2.6 mm 1 mps 721 mmHg 96%
    08:00 +23°C° 2.6 mm 1 mps 722 mmHg 96%
    09:00 +23°C° 2.4 mm 1 mps 721 mmHg 96%
    10:00 +23°C° 2.4 mm 1 mps 721 mmHg 96%
    11:00 +23°C° 2.4 mm 1 mps 721 mmHg 96%
    12:00 +25°C° 0.2 mm 1 mps 721 mmHg 87%
    13:00 +27°C° 0.2 mm 1 mps 720 mmHg 78%
    14:00 +28°C° 0.2 mm 1 mps 720 mmHg 68%
    15:00 +28°C° 0.6 mm 1 mps 720 mmHg 74%
    16:00 +27°C° 0.6 mm 1 mps 720 mmHg 79%
    17:00 +26°C° 0.6 mm 1 mps 719 mmHg 85%
    18:00 +25°C° 0.1 mm 1 mps 720 mmHg 88%
    19:00 +24°C° 0.1 mm 1 mps 720 mmHg 91%
    20:00 +23°C° 0.1 mm 1 mps 720 mmHg 94%
    21:00 +22°C° 0 mm 1 mps 720 mmHg 95%
    22:00 +22°C° 0 mm 1 mps 720 mmHg 96%
    23:00 +22°C° 0 mm 1 mps 720 mmHg 96%
    Show more